Snowfall_Accumulation
0.3 0.2 0.1 0.1 0.2 0.3 0.1 0.2 0.7 0.6 0.3 0.1 0.1 0.0 0.0 0.0 0.0 0.0 0.0 0.0 0.0 0.0 0.0 0.0 0.0 0.0 0.0 0.0 0.0 0.0 0.0 0.0 0.0 0.0 0.0 0.0 0.0 0.0
0.3 0.2 0.3 0.4 0.2 0.3 0.2 0.1 0.2 0.7 0.8 0.2 0.1 0.1 0.0 0.0 0.0 0.0 0.0 0.0 0.0 0.0 0.0 0.0 0.0 0.0 0.0 0.0 0.0 0.0 0.0 0.0 0.0 0.0 0.0 0.0 0.0 0.0
0.4 0.2 0.2 0.3 0.4 0.3 0.2 0.1 0.2 0.4 1.0 0.3 0.3 0.1 0.0 0.1 0.1 0.0 0.0 0.1 0.1 0.1 0.1 0.1 0.1 0.1 0.1 0.1 0.1 0.1 0.1 0.0 0.0 0.0 0.0 0.0 0.0 0.0
0.4 0.1 0.2 0.3 0.4 0.3 0.5 0.1 0.2 0.3 1.0 1.4 0.9 0.9 0.4 0.3 0.2 0.2 0.1 0.1 0.1 0.1 0.1 0.2 0.3 0.2 0.2 0.2 0.2 0.1 0.1 0.1 0.1 0.1 0.0 0.0 0.0 0.0
0.3 0.1 0.2 0.4 0.5 0.6 0.5 0.2 0.5 0.6 1.2 1.7 1.0 0.7 0.6 0.2 0.3 0.1 0.1 0.1 0.1 0.1 0.1 0.1 0.2 0.3 0.4 0.4 0.3 0.3 0.2 0.1 0.1 0.1 0.1 0.1 0.1 0.1
0.3 0.2 0.2 0.4 0.6 0.9 1.1 1.1 1.5 1.4 1.4 1.8 1.9 1.5 1.3 0.6 0.5 0.6 0.6 0.3 0.3 0.2 0.1 0.1 0.2 0.3 0.3 0.2 0.3 0.3 0.4 0.4 0.5 0.5 0.4 0.4 0.3 0.2
0.4 0.4 0.5 0.6 0.6 0.9 1.4 1.7 1.6 2.0 2.7 3.2 3.0 2.2 1.5 1.0 0.7 0.7 0.8 0.6 0.4 0.2 0.3 0.1 0.2 0.2 0.2 0.1 0.1 0.1 0.2 0.4 0.6 0.7 0.7 0.6 0.5 0.4
1.0 0.9 0.9 0.9 0.7 0.9 1.0 1.1 2.1 3.5 4.2 4.7 4.2 3.1 1.7 1.1 0.9 1.2 1.7 2.3 1.7 0.4 0.5 0.4 0.3 0.2 0.1 0.1 0.1 0.2 0.5 0.8 1.0 1.0 0.9 0.9 0.7 0.5
1.5 1.4 1.1 1.0 1.0 0.9 1.1 1.2 1.7 2.4 3.1 3.6 3.5 2.3 1.7 1.4 2.1 3.2 3.2 3.4 2.5 0.7 0.7 0.9 0.3 0.4 0.2 0.1 0.2 0.3 0.4 0.7 0.9 0.9 1.0 0.9 0.8 0.7
1.1 1.0 0.9 0.7 0.8 1.4 2.1 2.6 1.7 1.4 1.3 1.3 1.5 1.5 1.5 1.5 2.7 4.3 4.1 2.9 1.2 0.5 0.5 1.6 0.7 0.6 0.4 0.2 0.2 0.2 0.3 0.5 0.7 0.9 1.1 1.0 1.0 0.9
1.1 0.9 0.9 0.8 1.0 2.5 3.7 3.9 2.0 0.8 0.6 0.8 1.2 1.2 1.2 1.2 1.4 3.0 4.3 5.5 4.2 1.0 0.7 1.5 1.0 0.8 0.5 0.3 0.2 0.2 0.6 0.5 0.7 0.9 1.1 1.0 1.1 1.0
1.3 0.9 1.0 1.3 2.0 3.6 4.1 3.7 2.5 1.2 1.4 1.2 0.7 0.5 0.4 0.3 0.6 2.3 6.4 11.1 8.9 4.4 0.7 1.9 2.2 3.1 4.3 0.9 0.9 0.8 0.6 0.5 1.0 0.9 0.9 1.0 1.0 1.3
2.0 1.1 0.8 1.6 2.9 3.5 3.2 2.1 2.1 2.7 2.3 1.4 0.8 0.5 0.5 0.5 0.6 1.0 3.1 9.6 12.9 8.5 2.0 5.5 7.4 5.0 7.6 4.4 1.3 0.7 0.9 1.6 1.7 1.3 0.8 0.9 1.1 1.8
3.2 1.5 1.3 2.4 2.8 2.1 1.5 1.5 2.3 2.5 2.0 2.1 2.1 1.6 1.7 1.4 1.5 1.5 1.8 3.0 6.0 7.5 4.6 8.1 13.2 9.9 12.4 9.5 4.4 1.9 1.7 2.4 3.9 3.8 2.5 1.6 1.4 1.3
2.8 2.4 2.5 2.3 2.0 1.3 1.2 1.8 1.8 2.5 3.5 4.5 4.4 3.4 2.4 2.4 2.1 2.8 2.8 3.1 4.0 5.3 5.9 7.0 10.6 11.7 13.4 13.1 8.8 6.2 6.4 3.9 3.9 6.0 5.8 3.8 2.6 1.7
2.9 2.6 2.2 1.6 1.7 1.9 1.8 2.2 2.6 3.0 4.7 5.9 5.2 4.1 3.6 4.1 4.4 5.7 7.1 7.3 8.1 7.0 6.1 5.7 7.0 10.2 11.7 9.0 9.7 9.0 8.8 10.7 8.0 7.7 6.4 5.2 3.5 2.6
4.5 3.2 2.5 2.7 2.5 2.8 2.6 2.4 2.9 3.5 4.4 5.1 5.6 5.7 5.3 6.0 7.1 7.9 9.8 10.8 11.3 9.4 7.8 5.7 4.9 5.5 7.1 8.4 9.2 7.9 8.6 10.7 8.2 7.3 6.0 6.5 4.6 2.7
4.4 4.6 4.1 3.9 4.1 3.7 3.9 3.5 3.8 4.2 5.0 6.5 7.1 7.7 8.4 9.0 9.8 9.9 11.2 12.6 12.2 9.8 7.9 6.2 5.5 5.7 5.2 5.0 6.0 8.5 9.8 10.8 8.8 5.2 5.5 8.3 6.9 3.8
4.1 5.1 5.2 5.0 5.0 4.8 5.2 5.2 5.4 5.2 6.6 8.5 9.3 10.0 10.7 11.1 11.9 12.6 12.7 12.6 11.3 9.0 7.5 6.5 7.6 11.9 13.6 9.5 5.7 6.9 11.8 12.3 8.7 7.1 6.1 7.0 7.8 4.5
4.1 5.1 5.2 5.5 5.6 5.9 6.3 7.0 7.3 7.4 8.3 9.8 10.6 11.1 12.5 13.8 14.2 13.5 12.8 12.4 11.5 9.4 7.0 5.9 6.8 11.5 18.0 16.1 12.2 8.9 7.0 11.3 13.0 11.6 7.0 4.4 3.8 2.9
5.2 4.9 5.1 5.4 6.3 6.8 7.4 8.2 9.0 10.0 10.9 12.7 13.1 13.4 13.9 15.8 16.0 13.5 12.3 10.9 10.4 9.7 8.3 6.1 5.4 7.4 11.5 14.7 14.4 11.1 10.4 6.8 7.7 12.5 12.7 12.2 10.3 8.1
6.0 5.9 5.7 5.7 6.5 7.2 8.1 9.1 10.4 11.5 12.1 13.3 13.8 13.5 13.9 15.1 15.0 12.6 10.9 10.4 9.7 9.1 8.0 6.3 5.4 6.7 10.2 14.3 13.5 10.4 10.0 8.9 6.0 4.6 5.9 9.9 18.0 19.5
7.8 7.7 7.3 6.9 7.6 7.9 8.9 9.9 11.3 12.4 13.0 14.2 14.7 14.2 13.6 12.8 11.2 10.3 9.9 10.0 10.4 9.6 9.1 8.4 7.2 7.3 8.6 10.2 11.3 10.5 9.1 8.5 8.2 8.2 9.1 4.6 4.7 5.2